FW8576 Weather Reports


Display with metric or nautical units.
time (UTC)temp
F
wind
direction
speed
MPH
gust
MPH
rain 1hr
in
rain 24hr
in
rain mn
in
humidity
%
barometer
mb
20260507101618 67 207 3.0 8.0 0.00 0.24 0.24 99 1015.0
20260507101114 67 218 5.0 5.0 0.00 0.24 0.24 99 1015.2
20260507100612 67 232 4.0 9.0 0.00 0.24 0.24 99 1014.8
20260507100110 67 249 6.0 6.0 0.02 0.24 0.24 99 1015.2
20260507095608 67 229 3.0 6.0 0.02 0.24 0.24 99 1015.3
20260507095104 67 249 5.0 7.0 0.00 0.24 0.24 99 1015.5
20260507094600 67 235 3.0 7.0 0.00 0.24 0.24 99 1015.4
20260507094057 67 225 3.0 5.0 0.00 0.24 0.24 99 1015.6
20260507093555 67 288 3.0 7.0 0.00 0.24 0.24 99 1015.6
20260507093053 67 240 3.0 5.0 0.00 0.24 0.24 99 1015.4
20260507092549 67 229 3.0 7.0 0.00 0.24 0.24 99 1014.9
20260507092040 67 266 2.0 5.0 0.00 0.24 0.24 99 1015.1
20260507091537 67 225 0.0 7.0 0.00 0.24 0.24 99 1015.0
20260507091033 67 270 0.0 11.0 0.00 0.24 0.24 99 1015.2
20260507090529 67 267 3.0 10.0 0.00 0.24 0.24 99 1015.0
20260507090026 67 225 2.0 8.0 0.00 0.24 0.24 99 1014.8
20260507085523 67 222 3.0 5.0 0.02 0.24 0.24 99 1014.6
20260507085020 67 184 4.0 9.0 0.14 0.24 0.24 99 1014.2
20260507084516 67 239 4.0 6.0 0.24 0.23 0.23 99 1015.7
20260507084014 68 235 6.0 6.0 0.24 0.21 0.21 99 1015.2
20260507083509 68 235 5.0 9.0 0.19 0.19 0.19 99 1015.6
20260507083007 68 225 5.0 9.0 0.09 0.17 0.17 99 1015.8
20260507082503 68 223 6.0 9.0 0.07 0.16 0.16 99 1015.7
20260507081959 68 243 1.0 6.0 0.07 0.16 0.16 99 1015.5
20260507081455 68 231 2.0 13.0 0.07 0.15 0.15 99 1015.8
20260507080952 68 214 2.0 4.0 0.12 0.14 0.14 98 1015.6
20260507080448 68 220 5.0 6.0 0.17 0.13 0.13 98 1015.4
20260507075944 68 190 3.0 6.0 0.19 0.12 0.12 98 1015.4
20260507075440 68 208 2.0 4.0 0.12 0.11 0.11 98 1015.5
20260507074937 68 202 3.0 5.0 0.02 0.09 0.09 98 1015.6
20260507074434 68 180 1.0 3.0 0.02 0.09 0.09 98 1015.7
20260507073932 68 203 0.0 3.0 0.02 0.08 0.08 97 1015.7
20260507073428 69 225 0.0 3.0 0.05 0.08 0.08 97 1016.0
20260507072925 69 233 0.0 3.0 0.09 0.07 0.07 97 1016.0
20260507072422 69 273 3.0 5.0 0.12 0.07 0.07 96 1015.9
20260507071920 69 286 2.0 3.0 0.09 0.06 0.06 95 1015.7
20260507071417 69 270 0.0 4.0 0.12 0.05 0.05 95 1015.7
20260507070913 69 264 3.0 5.0 0.09 0.04 0.04 94 1016.0
20260507070410 69 280 3.0 5.0 0.05 0.03 0.03 93 1016.0
20260507065907 70 244 5.0 12.0 0.05 0.03 0.03 92 1016.1
20260507065404 70 255 5.0 5.0 0.05 0.02 0.02 91 1016.1
20260507064901 70 270 4.0 10.0 0.07 0.02 0.02 90 1016.2
20260507064359 71 295 2.0 6.0 0.05 0.02 0.02 88 1016.3
20260507063857 72 293 3.0 7.0 0.02 0.01 0.01 85 1016.5
20260507063354 72 253 5.0 14.0 0.05 0.01 0.01 83 1016.3
20260507062850 73 281 3.0 15.0 0.02 0.00 0.00 82 1015.8
20260507062347 74 247 10.0 14.0 0.00 0.00 0.00 79 1016.2
20260507061845 75 262 5.0 15.0 0.00 0.00 0.00 76 1015.8
20260507061343 76 307 6.0 10.0 0.00 0.00 0.00 73 1016.2
20260507060841 76 260 6.0 11.0 0.00 0.00 0.00 71 1015.8
20260507060337 76 270 3.0 9.0 0.00 0.00 0.00 71 1015.4
20260507055834 76 240 2.0 6.0 0.00 0.00 0.00 71 1015.1
20260507055329 76 236 5.0 5.0 0.00 0.00 0.00 70 1015.1
20260507054826 76 233 0.0 5.0 0.00 0.00 0.00 70 1015.1
20260507054322 76 257 4.0 5.0 0.00 0.00 0.00 70 1014.9
20260507053820 77 253 6.0 10.0 0.00 0.00 0.00 70 1015.3
20260507053317 76 243 2.0 7.0 0.00 0.00 0.00 70 1015.5
20260507052816 74 229 6.0 6.0 0.00 0.00 0.00 74 1015.6
20260507052312 72 291 1.0 2.0 0.00 0.00 0.00 85 1015.9
20260507051810 72 90 1.0 2.0 0.00 0.00 0.00 85 1015.9
20260507051308 72 250 3.0 3.0 0.00 0.00 0.00 85 1015.9
20260507050804 72 82 0.0 2.0 0.00 0.00 0.00 85 1015.9
20260507050300 72 90 0.0 3.0 0.00 0.00 0.00 84 1016.2
20260507045757 73 90 0.0 1.0 0.00 0.00 0.00 84 1016.7
20260507045254 73 90 0.0 0.0 0.00 0.00 0.00 84 1016.9
20260507044751 73 81 0.0 0.0 0.00 0.00 0.00 83 1017.0
20260507044247 73 82 0.0 2.0 0.00 0.00 0.00 83 1016.9
20260507043743 73 74 1.0 3.0 0.00 0.00 0.00 83 1016.8
20260507043240 74 0 0.0 2.0 0.00 0.00 0.00 82 1017.0
20260507042736 74 81 0.0 1.0 0.00 0.00 0.00 81 1017.0
20260507042232 74 340 0.0 1.0 0.00 0.00 0.00 80 1017.0
20260507041730 74 254 0.0 1.0 0.00 0.00 0.00 80 1017.1
20260507041226 74 77 1.0 1.0 0.00 0.00 0.00 80 1016.7
20260507040723 74 75 0.0 2.0 0.00 0.00 0.00 79 1016.8
20260507040219 75 63 1.0 4.0 0.00 0.00 0.00 78 1016.8
20260507035715 75 261 2.0 3.0 0.00 0.00 0.00 76 1016.9
20260507035211 76 79 2.0 8.0 0.00 0.00 0.00 74 1017.0
20260507034708 78 99 0.0 0.0 0.00 0.00 0.00 61 1016.8
20260507034206 78 0 0.0 0.0 0.00 0.00 0.00 60 1016.8
20260507033704 79 350 2.0 2.0 0.00 0.00 0.00 60 1016.7
20260507033201 79 318 3.0 5.0 0.00 0.00 0.00 59 1017.0
20260507032658 79 251 5.0 5.0 0.00 0.00 0.00 59 1017.1
20260507032154 79 262 2.0 6.0 0.00 0.00 0.00 59 1017.0
20260507031651 79 252 4.0 5.0 0.00 0.00 0.00 59 1017.3
20260507031147 79 297 3.0 6.0 0.00 0.00 0.00 58 1017.2
20260507030644 80 254 5.0 6.0 0.00 0.00 0.00 58 1017.3
20260507030142 80 246 0.0 5.0 0.00 0.00 0.00 58 1017.1
20260507025639 80 258 2.0 7.0 0.00 0.00 0.00 58 1017.1
20260507025136 80 233 3.0 6.0 0.00 0.00 0.00 57 1016.8
20260507024634 80 234 3.0 6.0 0.00 0.00 0.00 58 1016.8
20260507024131 80 265 2.0 7.0 0.00 0.00 0.00 57 1016.7
20260507023626 80 231 3.0 9.0 0.00 0.00 0.00 57 1016.5
20260507023124 80 232 5.0 10.0 0.00 0.00 0.00 57 1016.3
20260507022621 80 234 4.0 8.0 0.00 0.00 0.00 57 1016.0
20260507022116 80 235 4.0 10.0 0.00 0.00 0.00 57 1016.0
20260507021613 80 195 7.0 9.0 0.00 0.00 0.00 57 1016.0
20260507021108 80 214 7.0 12.0 0.00 0.00 0.00 57 1015.9
20260507020607 80 241 6.0 11.0 0.00 0.00 0.00 56 1016.0
20260507015602 80 246 5.0 8.0 0.00 0.00 0.00 56 1015.7
20260507015058 80 189 2.0 10.0 0.00 0.00 0.00 56 1015.7
20260507014555 80 202 7.0 11.0 0.00 0.00 0.00 56 1015.8
20260507014051 80 263 4.0 9.0 0.00 0.00 0.00 56 1016.0
20260507013548 80 242 4.0 12.0 0.00 0.00 0.00 57 1016.1
20260507013045 80 225 5.0 9.0 0.00 0.00 0.00 58 1016.1
20260507012542 80 216 6.0 8.0 0.00 0.00 0.00 57 1016.0
20260507012038 80 249 4.0 6.0 0.00 0.00 0.00 57 1015.7
20260507011536 80 194 3.0 4.0 0.00 0.00 0.00 57 1015.6
20260507011032 81 221 4.0 7.0 0.00 0.00 0.00 56 1015.5
20260507010526 81 227 3.0 7.0 0.00 0.00 0.00 57 1015.4
20260507010023 81 196 4.0 7.0 0.00 0.00 0.00 57 1015.2
20260507005521 81 214 5.0 7.0 0.00 0.00 0.00 56 1015.3
20260507005017 81 246 3.0 5.0 0.00 0.00 0.00 56 1015.2
20260507004514 81 175 3.0 6.0 0.00 0.00 0.00 56 1015.3
20260507004011 81 223 5.0 5.0 0.00 0.00 0.00 56 1015.0
20260507003506 81 199 0.0 4.0 0.00 0.00 0.00 56 1015.1
20260507003001 81 173 0.0 4.0 0.00 0.00 0.00 55 1015.3
20260507002459 82 229 5.0 7.0 0.00 0.00 0.00 55 1015.6
20260507001955 82 252 5.0 6.0 0.00 0.00 0.00 53 1015.8
20260507001451 82 240 3.0 7.0 0.00 0.00 0.00 53 1015.8
20260507000949 82 234 1.0 5.0 0.00 0.00 0.00 52 1015.9
20260507000445 83 219 8.0 9.0 0.00 0.00 0.00 52 1015.9
20260506235940 83 259 8.0 11.0 0.00 0.00 0.00 51 1015.9
20260506235438 83 188 5.0 11.0 0.00 0.00 0.00 51 1015.9
20260506234933 84 241 5.0 10.0 0.00 0.00 0.00 51 1015.7
20260506234431 84 240 7.0 10.0 0.00 0.00 0.00 51 1015.7
20260506233929 84 328 0.0 9.0 0.00 0.00 0.00 51 1015.9
20260506233425 84 245 4.0 9.0 0.00 0.00 0.00 50 1016.0
20260506232921 84 207 4.0 9.0 0.00 0.00 0.00 51 1016.0
20260506232418 84 205 6.0 10.0 0.00 0.00 0.00 50 1015.9
20260506231914 84 235 3.0 7.0 0.00 0.00 0.00 50 1016.0
20260506231412 84 262 8.0 10.0 0.00 0.00 0.00 50 1015.8
20260506230909 85 209 6.0 9.0 0.00 0.00 0.00 49 1015.9
20260506230405 85 242 4.0 22.0 0.00 0.00 0.00 49 1016.1
20260506225901 86 179 7.0 8.0 0.00 0.00 0.00 48 1015.8
20260506225359 86 224 8.0 16.0 0.00 0.00 0.00 48 1015.7
20260506224856 86 191 7.0 10.0 0.00 0.00 0.00 49 1015.8
20260506224353 86 226 5.0 6.0 0.00 0.00 0.00 48 1015.7
20260506223849 86 206 10.0 11.0 0.00 0.00 0.00 48 1015.4
20260506223344 86 192 6.0 7.0 0.00 0.00 0.00 49 1015.5
20260506222842 86 237 7.0 10.0 0.00 0.00 0.00 49 1015.6
20260506222338 86 229 12.0 17.0 0.00 0.00 0.00 49 1015.5
20260506221836 87 209 3.0 5.0 0.00 0.00 0.00 49 1015.5
20260506221333 87 238 8.0 10.0 0.00 0.00 0.00 49 1015.7
20260506220831 87 227 6.0 9.0 0.00 0.00 0.00 48 1015.6
20260506220326 86 235 6.0 10.0 0.00 0.00 0.00 49 1015.9
20260506215823 87 240 4.0 12.0 0.00 0.00 0.00 48 1015.9
20260506215318 87 233 4.0 12.0 0.00 0.00 0.00 49 1015.9
20260506214814 86 251 5.0 17.0 0.00 0.00 0.00 48 1015.7
20260506214311 86 185 3.0 17.0 0.00 0.00 0.00 48 1016.0
20260506213810 87 270 4.0 11.0 0.00 0.00 0.00 48 1016.1
20260506213306 86 230 4.0 16.0 0.00 0.00 0.00 48 1015.9
20260506212804 87 232 7.0 11.0 0.00 0.00 0.00 47 1015.9
20260506212259 87 226 7.0 11.0 0.00 0.00 0.00 47 1016.0
20260506211754 88 157 4.0 15.0 0.00 0.00 0.00 46 1015.9
20260506211251 88 245 2.0 13.0 0.00 0.00 0.00 47 1015.9
20260506210748 89 195 6.0 12.0 0.00 0.00 0.00 45 1016.1
20260506210245 89 254 8.0 10.0 0.00 0.00 0.00 46 1016.1
20260506205742 87 235 6.0 15.0 0.00 0.00 0.00 46 1016.2
20260506205238 87 192 1.0 8.0 0.00 0.00 0.00 46 1016.1
20260506204735 89 248 7.0 10.0 0.00 0.00 0.00 46 1016.3
20260506204232 87 319 6.0 14.0 0.00 0.00 0.00 45 1016.3
20260506203730 89 236 5.0 13.0 0.00 0.00 0.00 45 1016.2
20260506203227 87 268 5.0 15.0 0.00 0.00 0.00 46 1016.5
20260506202725 87 213 8.0 11.0 0.00 0.00 0.00 45 1016.4
20260506202220 88 244 7.0 11.0 0.00 0.00 0.00 46 1016.2
20260506201712 88 221 8.0 8.0 0.00 0.00 0.00 46 1016.4
20260506201209 88 199 10.0 13.0 0.00 0.00 0.00 45 1016.7
20260506200706 88 203 6.0 15.0 0.00 0.00 0.00 45 1016.4
20260506200203 88 239 6.0 16.0 0.00 0.00 0.00 45 1016.7
20260506195659 88 202 9.0 10.0 0.00 0.00 0.00 46 1016.7
20260506195155 86 228 4.0 13.0 0.00 0.00 0.00 46 1016.8
20260506194653 87 276 5.0 11.0 0.00 0.00 0.00 46 1017.1
20260506194149 88 218 10.0 13.0 0.00 0.00 0.00 44 1017.1
20260506193647 88 221 7.0 8.0 0.00 0.00 0.00 46 1017.3
20260506193143 88 247 6.0 14.0 0.00 0.00 0.00 45 1017.5
20260506192640 86 202 4.0 12.0 0.00 0.00 0.00 46 1017.6
20260506192136 87 261 8.0 9.0 0.00 0.00 0.00 46 1017.5
20260506191633 86 259 7.0 14.0 0.00 0.00 0.00 46 1017.8
20260506191129 87 244 6.0 12.0 0.00 0.00 0.00 46 1017.8
20260506190627 87 221 4.0 10.0 0.00 0.00 0.00 44 1017.7
20260506190124 87 245 4.0 7.0 0.00 0.00 0.00 45 1017.8
20260506185621 87 265 2.0 7.0 0.00 0.00 0.00 47 1017.7
20260506185117 87 248 7.0 13.0 0.00 0.00 0.00 44 1017.9
20260506184614 85 255 3.0 10.0 0.00 0.00 0.00 46 1017.9
20260506184111 84 252 9.0 11.0 0.00 0.00 0.00 46 1017.9
20260506183608 85 265 9.0 14.0 0.00 0.00 0.00 47 1018.0
20260506183104 85 235 3.0 15.0 0.00 0.00 0.00 47 1018.2
20260506182602 84 287 4.0 15.0 0.00 0.00 0.00 46 1017.9
20260506182059 85 40 2.0 11.0 0.00 0.00 0.00 46 1018.1
20260506181557 85 229 11.0 13.0 0.00 0.00 0.00 45 1018.1
20260506181053 86 222 7.0 9.0 0.00 0.00 0.00 48 1018.2
20260506180550 85 214 0.0 7.0 0.00 0.00 0.00 50 1018.4
20260506180047 84 246 4.0 13.0 0.00 0.00 0.00 49 1018.3
20260506175543 84 255 3.0 11.0 0.00 0.00 0.00 49 1018.5
20260506175039 84 262 5.0 10.0 0.00 0.00 0.00 51 1018.6
20260506174538 84 154 1.0 11.0 0.00 0.00 0.00 51 1018.6
20260506174033 84 275 0.0 11.0 0.00 0.00 0.00 53 1018.6
20260506173532 83 241 5.0 12.0 0.00 0.00 0.00 51 1018.9
20260506173028 83 191 6.0 9.0 0.00 0.00 0.00 52 1019.0
20260506172526 81 237 3.0 9.0 0.00 0.00 0.00 53 1019.1
20260506172022 82 229 5.0 13.0 0.00 0.00 0.00 53 1019.0
20260506171519 81 204 8.0 14.0 0.00 0.00 0.00 52 1019.3
20260506171017 80 229 9.0 14.0 0.00 0.00 0.00 57 1019.2
20260506170514 79 197 6.0 11.0 0.00 0.00 0.00 61 1019.3
20260506170006 79 237 7.0 12.0 0.00 0.00 0.00 61 1019.6
20260506165504 78 223 5.0 9.0 0.00 0.00 0.00 62 1019.7
20260506165000 79 228 4.0 9.0 0.00 0.00 0.00 62 1020.0
20260506164456 79 322 4.0 9.0 0.00 0.00 0.00 64 1019.8
20260506163954 79 203 6.0 9.0 0.00 0.00 0.00 63 1020.2
20260506163449 78 264 3.0 11.0 0.00 0.00 0.00 63 1020.4
20260506162944 78 268 7.0 8.0 0.00 0.00 0.00 63 1020.4
20260506162442 78 200 5.0 9.0 0.00 0.00 0.00 66 1020.4
20260506161939 77 227 3.0 9.0 0.00 0.00 0.00 68 1020.5
20260506161437 77 212 6.0 8.0 0.00 0.00 0.00 68 1020.4
20260506160935 76 221 2.0 5.0 0.00 0.00 0.00 70 1020.5
20260506160432 76 262 8.0 12.0 0.00 0.00 0.00 68 1020.4
20260506155929 76 251 3.0 8.0 0.00 0.00 0.00 69 1020.4
20260506155426 76 275 4.0 11.0 0.00 0.00 0.00 70 1020.5
20260506153548 75 226 6.0 9.0 0.00 0.00 0.00 70 1020.4
20260506153045 75 242 7.0 9.0 0.00 0.00 0.00 71 1020.3
20260506152542 74 255 7.0 14.0 0.00 0.00 0.00 72 1020.3
20260506152041 74 279 3.0 12.0 0.00 0.00 0.00 71 1020.2
20260506151539 75 231 5.0 14.0 0.00 0.00 0.00 71 1020.2
20260506151035 75 256 4.0 12.0 0.00 0.00 0.00 71 1019.9
20260506150531 75 273 4.0 11.0 0.00 0.00 0.00 71 1019.8
20260506150029 76 196 5.0 13.0 0.00 0.00 0.00 71 1019.6
20260506145525 74 267 4.0 9.0 0.00 0.00 0.00 73 1019.8
20260506145023 75 245 6.0 9.0 0.00 0.00 0.00 72 1019.7
20260506144519 74 252 5.0 12.0 0.00 0.00 0.00 74 1019.3
20260506144017 74 244 5.0 8.0 0.00 0.00 0.00 73 1019.7
20260506143514 74 225 8.0 11.0 0.00 0.00 0.00 74 1019.8
20260506143013 74 233 3.0 8.0 0.00 0.00 0.00 75 1019.7
20260506142510 74 236 4.0 5.0 0.00 0.00 0.00 76 1019.9
20260506142008 73 165 4.0 4.0 0.00 0.00 0.00 77 1019.9
20260506141505 72 225 6.0 9.0 0.00 0.00 0.00 77 1019.7
20260506141004 72 180 0.0 4.0 0.00 0.00 0.00 78 1019.8
20260506140501 71 161 2.0 4.0 0.00 0.00 0.00 79 1019.8
20260506135957 71 191 2.0 4.0 0.00 0.00 0.00 79 1019.9
20260506135455 70 246 1.0 5.0 0.00 0.00 0.00 79 1020.0
20260506134951 70 209 3.0 4.0 0.00 0.00 0.00 79 1020.0
20260506134446 70 286 0.0 5.0 0.00 0.00 0.00 80 1020.1
20260506133943 70 157 0.0 3.0 0.00 0.00 0.00 81 1019.9
20260506133441 69 162 3.0 3.0 0.00 0.00 0.00 82 1019.8
20260506132937 68 228 2.0 4.0 0.00 0.00 0.00 82 1019.8
20260506132434 69 82 0.0 1.0 0.00 0.00 0.00 82 1019.7
20260506131932 68 205 0.0 3.0 0.00 0.00 0.00 82 1019.5
20260506131428 68 234 4.0 4.0 0.00 0.00 0.00 82 1019.8
20260506130925 68 168 0.0 3.0 0.00 0.00 0.00 82 1019.7
20260506130421 67 160 3.0 5.0 0.00 0.00 0.00 82 1019.7
20260506125920 67 159 2.0 3.0 0.00 0.00 0.00 82 1019.5
20260506125418 67 201 0.0 3.0 0.00 0.00 0.00 83 1019.7
20260506124916 67 195 0.0 3.0 0.00 0.00 0.00 84 1019.3
20260506124413 66 209 2.0 3.0 0.00 0.00 0.00 84 1019.7
20260506123911 66 144 0.0 3.0 0.00 0.00 0.00 85 1019.5
20260506123409 65 188 3.0 5.0 0.00 0.00 0.00 85 1019.5
20260506122906 65 185 0.0 3.0 0.00 0.00 0.00 85 1019.5
20260506122402 65 196 0.0 3.0 0.00 0.00 0.00 86 1019.4
20260506121901 64 262 1.0 3.0 0.00 0.00 0.00 86 1019.5
20260506121357 64 187 2.0 3.0 0.00 0.00 0.00 86 1019.5
20260506120854 64 183 2.0 3.0 0.00 0.00 0.00 86 1019.4
20260506120352 64 199 2.0 4.0 0.00 0.00 0.00 85 1019.5
20260506115849 64 127 0.0 2.0 0.00 0.00 0.00 86 1019.2
20260506115347 64 176 2.0 5.0 0.00 0.00 0.00 85 1019.3
20260506114845 64 202 0.0 6.0 0.00 0.00 0.00 85 1019.4
20260506114342 64 186 0.0 3.0 0.00 0.00 0.00 86 1019.3
20260506113841 64 261 0.0 3.0 0.00 0.00 0.00 86 1019.2
20260506113338 63 151 1.0 7.0 0.00 0.00 0.00 87 1019.0
20260506112835 63 210 2.0 5.0 0.00 0.00 0.00 87 1018.8
20260506112332 62 180 0.0 4.0 0.00 0.00 0.00 88 1018.7
20260506111829 62 200 4.0 5.0 0.00 0.00 0.00 88 1018.5
20260506111328 62 243 1.0 4.0 0.00 0.00 0.00 88 1018.7
20260506110825 62 225 2.0 5.0 0.00 0.00 0.00 88 1018.5
20260506110321 62 276 1.0 3.0 0.00 0.00 0.00 88 1018.5
20260506105819 62 206 2.0 9.0 0.00 0.00 0.00 88 1018.4
20260506105315 62 216 3.0 5.0 0.00 0.00 0.00 88 1018.1
20260506104812 62 219 2.0 6.0 0.00 0.00 0.00 88 1018.0
20260506104310 62 216 3.0 7.0 0.00 0.00 0.00 87 1018.2
20260506103808 62 212 2.0 6.0 0.00 0.00 0.00 88 1017.9
20260506103305 62 206 1.0 3.0 0.00 0.00 0.00 87 1018.0
20260506102802 62 278 0.0 5.0 0.00 0.00 0.00 87 1017.9
20260506102300 62 111 1.0 5.0 0.00 0.00 0.00 87 1017.8
20260506101757 62 243 0.0 5.0 0.00 0.00 0.00 87 1018.1